ALCOMSAT 1

Last updated on Thu Nov 21 2024 00:02:43 GMT+0000 (Coordinated Universal Time)

1 43039U 17078A 24325.29036976 -.00000184 00000+0 00000+0 0 9992 2 43039 0.0102 270.4930 0003491 325.2117 263.8774 1.00271221 25546
UTC large
Height (km)
Speed (km/s)
/
Latitude / Longitude
Inclination (degrees)
Orbital Period (minutes)
Azimuth
Elevation
Range (km)
Doppler Factor

Next 0 passes for location: London (51.5072 / 0.1276)

Sorry there are no passes over London.